Preston, MN

2:31 AM CDT on April 26, 2017 (GMT -0500)
Preston

Weather History for KFKA - September, 2013

Change the Weather History Date:

Monday, September 16, 2013

  Actual Average (KRST) Record (KRST)
Temperature  
Mean Temperature 54 °F -  
Max Temperature 65 °F 68 °F 96 °F (1939)
Min Temperature 43 °F 47 °F 28 °F (1937)
Degree Days  
Heating Degree Days 12    
Growing Degree Days 4 (Base 50)    
Moisture  
Dew Point 45 °F    
Average Humidity 73    
Maximum Humidity 97    
Minimum Humidity 43    
Precipitation  
Precipitation 0.00 in - - ()
Sea Level Pressure  
Sea Level Pressure 30.34 in    
Wind  
Wind Speed 5 mph (ENE)    
Max Wind Speed 9 mph    
Max Gust Speed -    
Visibility 10 miles    
Events Thunderstorm    
Averages and records for this station are not official NWS values.
T = Trace of Precipitation, MM = Missing Value Source: NWS Daily Summary

Daily Weather History Graph

Daily Weather History Graph

Search for Another Location

Airport or City:

Trip Planner

Search our weather history database for the weather conditions in past years. The results will help you decide how hot, cold, wet, or windy it might be!

Date:

Astronomy

Sep. 16, 2013 Rise Set
Actual Time 6:49 AM CDT 7:16 PM CDT
Civil Twilight 6:20 AM CDT 7:45 PM CDT
Nautical Twilight 5:46 AM CDT 8:19 PM CDT
Astronomical Twilight 5:11 AM CDT 8:54 PM CDT
Moon 5:29 PM CDT (9/16) 3:31 AM CDT (9/16)
Length of Visible Light 13h 24m
Length of Day
12h 27m
Waxing Gibbous, 90% of the Moon is Illuminated
Sep 16
Waxing Gibbous
Sep 19
Full
Sep 26
Last Quarter
Oct 4
New
Oct 11
First Quarter

Hourly Weather History & Observations

Time (CDT) Temp. Windchill Dew Point Humidity Pressure Visibility Wind Dir Wind Speed Gust Speed Precip Events Conditions
12:15 AM 51.8 °F - 50.2 °F 94% 30.30 in 10.0 mi North 4.6 mph - N/A   Mostly Cloudy
12:36 AM 51.8 °F - 49.8 °F 93% 30.30 in 10.0 mi NNE 8.1 mph - N/A   Overcast
12:56 AM 51.3 °F - 49.3 °F 93% 30.31 in 10.0 mi North 5.8 mph - N/A   Overcast
1:15 AM 51.1 °F - 49.1 °F 93% 30.31 in 10.0 mi NNE 6.9 mph - N/A   Overcast
1:36 AM 50.5 °F - 48.2 °F 92% 30.31 in 10.0 mi NNE 4.6 mph - N/A   Overcast
1:56 AM 50.4 °F - 48.2 °F 92% 30.31 in 10.0 mi NNE 8.1 mph - N/A   Overcast
2:15 AM 50.0 °F - 47.7 °F 92% 30.32 in 10.0 mi North 5.8 mph - N/A   Overcast
2:35 AM 49.3 °F - 47.5 °F 94% 30.32 in 10.0 mi North 4.6 mph - N/A   Overcast
2:56 AM 49.1 °F - 47.3 °F 93% 30.32 in 10.0 mi NNE 4.6 mph - N/A   Overcast
3:15 AM 48.7 °F - 47.3 °F 95% 30.32 in 10.0 mi North 3.5 mph - N/A   Overcast
3:35 AM 48.6 °F - 47.3 °F 95% 30.32 in 10.0 mi NNE 5.8 mph - N/A   Overcast
3:56 AM 48.2 °F - 46.4 °F 93% 30.33 in 10.0 mi NNE 4.6 mph - N/A   Overcast
4:15 AM 47.3 °F - 45.9 °F 95% 30.33 in 10.0 mi NNE 4.6 mph - N/A   Scattered Clouds
4:35 AM 46.6 °F - 45.5 °F 96% 30.33 in 10.0 mi NNE 5.8 mph - N/A   Clear
4:55 AM 46.2 °F 43.3 °F 44.8 °F 95% 30.33 in 10.0 mi NE 5.8 mph - N/A   Clear
5:15 AM 45.7 °F 43.4 °F 44.6 °F 96% 30.34 in 10.0 mi NE 4.6 mph - N/A   Clear
5:35 AM 45.5 °F 43.2 °F 44.4 °F 96% 30.34 in 10.0 mi NE 4.6 mph - N/A   Clear
5:55 AM 45.0 °F 42.6 °F 43.9 °F 96% 30.35 in 10.0 mi NNE 4.6 mph - N/A   Clear
6:15 AM 44.6 °F 42.2 °F 43.7 °F 97% 30.36 in 10.0 mi NNE 4.6 mph - N/A   Clear
6:35 AM 44.4 °F 42.0 °F 43.2 °F 95% 30.36 in 10.0 mi NNE 4.6 mph - N/A   Clear
6:55 AM 43.9 °F 41.3 °F 42.8 °F 96% 30.36 in 10.0 mi NNE 4.6 mph - N/A   Clear
7:15 AM 44.1 °F 40.8 °F 43.2 °F 97% 30.37 in 10.0 mi NE 5.8 mph - N/A   Clear
7:36 AM 44.6 °F 40.7 °F 43.7 °F 97% 30.38 in 10.0 mi NE 6.9 mph - N/A   Clear
7:55 AM 45.7 °F 42.7 °F 44.6 °F 96% 30.38 in 10.0 mi NE 5.8 mph - N/A   Clear
8:15 AM 46.6 °F - 44.6 °F 93% 30.39 in 10.0 mi NE 6.9 mph - N/A   Clear
8:35 AM 48.0 °F - 45.1 °F 90% 30.38 in 10.0 mi ENE 8.1 mph - N/A   Clear
8:56 AM 49.1 °F - 45.7 °F 88% 30.39 in 10.0 mi East 8.1 mph - N/A   Clear
9:15 AM 50.2 °F - 45.7 °F 85% 30.40 in 10.0 mi East 6.9 mph - N/A   Clear
9:36 AM 51.3 °F - 45.5 °F 81% 30.40 in 10.0 mi East 6.9 mph - N/A   Clear
9:55 AM 51.8 °F - 46.0 °F 81% 30.40 in 10.0 mi East 5.8 mph - N/A   Scattered Clouds
10:16 AM 52.9 °F - 46.0 °F 78% 30.41 in 10.0 mi ESE 6.9 mph - N/A   Mostly Cloudy
10:35 AM 54.5 °F - 46.4 °F 74% 30.41 in 10.0 mi ENE 3.5 mph - N/A   Mostly Cloudy
10:56 AM 54.9 °F - 46.4 °F 73% 30.40 in 10.0 mi East 4.6 mph - N/A   Scattered Clouds
11:15 AM 55.6 °F - 46.8 °F 72% 30.40 in 10.0 mi ENE 6.9 mph - N/A   Scattered Clouds
11:36 AM 56.7 °F - 46.9 °F 70% 30.40 in 10.0 mi ENE 5.8 mph - N/A   Clear
11:55 AM 57.9 °F - 47.3 °F 68% 30.40 in 10.0 mi ESE 3.5 mph - N/A   Clear
12:15 PM 59.0 °F - 47.1 °F 65% 30.40 in 10.0 mi NE 5.8 mph - N/A   Clear
12:35 PM 59.7 °F - 45.1 °F 59% 30.40 in 10.0 mi East 4.6 mph - N/A   Clear
12:55 PM 60.3 °F - 41.5 °F 50% 30.39 in 10.0 mi East 6.9 mph - N/A   Clear
1:16 PM 61.0 °F - 42.3 °F 50% 30.40 in 10.0 mi NE 3.5 mph - N/A   Clear
1:35 PM 61.9 °F - 43.3 °F 51% 30.39 in 10.0 mi East 3.5 mph - N/A   Clear
1:56 PM 62.2 °F - 44.4 °F 52% 30.38 in 10.0 mi East 8.1 mph - N/A   Clear
2:16 PM 62.8 °F - 43.5 °F 49% 30.37 in 10.0 mi NE 3.5 mph - N/A   Clear
2:35 PM 63.1 °F - 41.2 °F 45% 30.36 in 10.0 mi East 5.8 mph - N/A   Clear
2:55 PM 63.7 °F - 43.3 °F 48% 30.35 in 10.0 mi Calm Calm - N/A   Clear
3:15 PM 64.2 °F - 43.2 °F 46% 30.35 in 10.0 mi ESE 6.9 mph - N/A   Clear
3:36 PM 64.4 °F - 41.2 °F 43% 30.34 in 10.0 mi East 5.8 mph - N/A   Clear
3:55 PM 64.4 °F - 42.1 °F 44% 30.33 in 10.0 mi East 5.8 mph - N/A   Clear
4:16 PM 64.8 °F - 42.3 °F 44% 30.33 in 10.0 mi ESE 3.5 mph - N/A   Clear
4:35 PM 64.9 °F - 42.8 °F 45% 30.32 in 10.0 mi ESE 5.8 mph - N/A   Clear
4:55 PM 64.6 °F - 43.0 °F 45% 30.31 in 10.0 mi ENE 4.6 mph - N/A   Clear
5:16 PM 64.6 °F - 43.2 °F 46% 30.31 in 10.0 mi East 9.2 mph - N/A   Clear
5:35 PM 64.0 °F - 42.8 °F 46% 30.31 in 10.0 mi East 6.9 mph - N/A   Clear
5:55 PM 63.9 °F - 43.3 °F 47% 30.31 in 10.0 mi East 5.8 mph - N/A   Clear
6:16 PM 63.1 °F - 43.5 °F 49% 30.31 in 10.0 mi ESE 5.8 mph - N/A   Clear
6:35 PM 62.2 °F - 44.6 °F 52% 30.31 in 10.0 mi East 4.6 mph - N/A   Clear
6:55 PM 60.8 °F - 44.1 °F 54% 30.30 in 10.0 mi East 4.6 mph - N/A   Clear
7:15 PM 59.0 °F - 45.1 °F 60% 30.30 in 10.0 mi ESE 4.6 mph - N/A   Clear
7:35 PM 58.1 °F - 45.0 °F 62% 30.30 in 10.0 mi ESE 5.8 mph - N/A   Clear
7:55 PM 56.1 °F - 44.2 °F 64% 30.30 in 10.0 mi SSE 3.5 mph - N/A Thunderstorm Clear
8:15 PM 55.4 °F - 44.1 °F 66% 30.30 in 10.0 mi SE 4.6 mph - N/A   Clear
8:35 PM 54.3 °F - 44.1 °F 68% 30.30 in 10.0 mi SE 5.8 mph - N/A   Clear
8:55 PM 53.6 °F - 43.7 °F 69% 30.30 in 10.0 mi SE 5.8 mph - N/A   Clear
9:15 PM 53.4 °F - 43.0 °F 68% 30.31 in 10.0 mi SE 4.6 mph - N/A   Clear
9:35 PM 53.1 °F - 42.6 °F 68% 30.30 in 10.0 mi SE 4.6 mph - N/A   Clear
9:55 PM 52.0 °F - 42.8 °F 71% 30.30 in 10.0 mi SE 5.8 mph - N/A   Clear
10:16 PM 51.8 °F - 42.8 °F 71% 30.30 in 10.0 mi SSE 3.5 mph - N/A   Clear
10:35 PM 51.6 °F - 42.8 °F 72% 30.30 in 10.0 mi SSE 3.5 mph - N/A   Clear
10:56 PM 50.7 °F - 42.6 °F 74% 30.31 in 10.0 mi South 4.6 mph - N/A   Clear
11:15 PM 50.0 °F - 42.3 °F 75% 30.31 in 10.0 mi SSE 4.6 mph - N/A   Clear
11:36 PM 50.7 °F - 42.4 °F 73% 30.31 in 10.0 mi SE 4.6 mph - N/A   Clear
11:56 PM 49.5 °F - 42.4 °F 77% 30.31 in 10.0 mi SE 5.8 mph - N/A   Clear